Weather in Berezna

Ukraine / Chernihiv Region     51˚34′11″N   31˚47′02″E
temp.,
°C
wind,
m/s
gust,
m/s
humid.,
%
clouds,
%
prec.,
mm/h
press.,
hPa
HPBL,
m
1 december, tue
tue123:00−1˚nnw3482100 0.0 1028229
02:00−1˚n2480100 0.0 1028272
05:00−1˚nne3679100 0.0 1028403
08:00−1˚nne3683100 0.1 1028411
11:00ne4684100 0.1 1028451
14:00+1˚ne4686100 0.1 1028465
17:00ne3697100 0.0 1029280
20:00+1˚e4895100 0.1 1029423
2 december, wed
wed223:00ene4791100 0.0 1029425
02:00e4788100 0.1 1030426
05:00−2˚e5892100 0.1 1029410
08:00−2˚e5891100 0.3 1029378
11:00−1˚ese4788100 0.1 1029509
14:00−1˚ese4685100 0.3 1028551
17:00−1˚ese4693100 0.1 1028433
20:00−2˚ese4794100 0.3 1028398
3 december, thu
thu323:00−2˚ese479486 0.2 1028360
02:00−2˚ese479485 0.3 1027307
05:00−2˚ese469595 0.1 1027303
08:00−2˚ese479592 0.3 1026283
11:00−1˚se458990 0.0 1026372
14:00ese359095 0.1 1025327
17:00ese3694100 0.0 1025309
20:00ese4995100 0.0 1025370
4 december, fri
fri423:00+1˚ese4795100 0.1 1025280
02:00sse379890 0.1 1024235
05:00+1˚se489799 0.0 1024411
08:00+1˚se6109796 0.0 1024313
11:00+2˚se61195100 0.0 1024421
14:00+1˚se61096100 0.0 1024525
17:00+1˚se71192100 0.0 1024629
20:00+2˚se61192100 0.0 1024557
5 december, sat
sat523:00+2˚se61293100 0.0 1024469
02:00+2˚se61194100 0.0 1024545
05:00+2˚se61290100 0.0 1024482
08:00+2˚se71290100 0.0 1025522
11:00+3˚se71286100 0.0 1025737
14:00+2˚se61085100 0.0 1025613
17:00+1˚se7128892 0.0 1025479
20:00+1˚se7138693 0.0 1026500